Location: Angwan Shehu
(11.2514°N, 7.4613°E)
Time: 05:10:25
(UTC+00:00)

SR - Pass Details

Date: 23 April 2021
Orbit: 573 x 882 km, 66.7° (Epoch: 12 May)

Event Time Altitude Azimuth Distance (km) Brightness Sun altitude
Rises 05:36:35 0° 222° (SW) 3,126 ? 4.4°
Reaches altitude 10° 05:39:06 10° 233° (SW) 2,258 ? 5.0°
Maximum altitude 05:43:39 31° 294° (WNW) 1,365 ? 6.1°
Drops below altitude 10° 05:48:32 10° 355° (N) 2,426 ? 7.2°
Sets 05:51:21 0° 5° (N) 3,399 ? 7.9°
